Hourly Data Report for October 15, 2015

All times are specified in Local Standard Time (LST). Add 1 hour to adjust for Daylight Saving Time where and when it is observed.

POND INLET A
NUNAVUT

72°41'22.000" N
77°58'08.000" W
61.60 m
2403206
71095
YIO

Download Data

Hourly Data (October 2015)
Hourly Data Report for October 15, 2015
Temp Definition
°C
Dew Point Temp Definition
°C
Rel Hum Definition
%
Wind Dir Definition
10's deg

Wind Spd Definition
km/h
Visibility Definition
km
Stn Press Definition
kPa
Hmdx Definition


Wind Chill Definition


Weather Definition


TIME
00:00 Legend Double Dagger -5.7 -8.8 79 15 21 16.1 98.35   -13 LegendNANA
01:00 Legend Double Dagger -5.2 -9.3 73 15 21 16.1 98.32   -12 LegendNANA
02:00 Legend Double Dagger -5.5 -9.6 73 14 21 16.1 98.29   -12 LegendNANA
03:00 Legend Double Dagger -5.9 -9.8 74 14 17 16.1 98.30   -12 LegendNANA
04:00 Legend Double Dagger -5.5 -9.9 71 14 17 16.1 98.28   -12 LegendNANA
05:00 Legend Double Dagger -5.7 -9.3 76 14 18 16.1 98.28   -12 LegendNANA
06:00 Legend Double Dagger -5.3 -8.9 76 15 18 16.1 98.28   -12 LegendNANA
07:00 Legend Double Dagger -4.5 -8.1 76 15 22 16.1 98.23   -11 LegendNANA
08:00 Legend Double Dagger -6.2 -8.9 82 16 22 16.1 98.22   -13 LegendNANA
09:00 Legend Double Dagger -4.9 -6.6 88 17 28 16.1 98.21   -13 LegendNANA
10:00 Legend Double Dagger -4.5 -6.7 85 18 35 16.1 98.17   -13 LegendNANA
11:00 Legend Double Dagger -3.9 -5.8 87 20 26 16.1 98.12   -11 LegendNANA
12:00 Legend Double Dagger -3.8 -6.8 80 26 32 16.1 98.12   -12 LegendNANA
13:00 Legend Double Dagger -3.6 -7.1 77 26 34 16.1 98.13   -12 LegendNANA
14:00 Legend Double Dagger -4.1 -7.6 77 26 28 16.1 98.16   -12 LegendNANA
15:00 Legend Double Dagger -4.4 -8.5 73 27 28 16.1 98.19   -12 LegendNANA
16:00 Legend Double Dagger -4.8 -9.1 72 25 28 16.1 98.22   -12 LegendNANA
17:00 Legend Double Dagger -5.0 -9.7 70 27 30 16.1 98.25   -13 LegendNANA
18:00 Legend Double Dagger -5.3 -10.3 68 25 32 16.1 98.26   -14 LegendNANA
19:00 Legend Double Dagger -5.3 -10.4 68 26 32 16.1 98.32   -14 LegendNANA
20:00 Legend Double Dagger -6.1 -11.3 67 27 34 16.1 98.36   -15 LegendNANA
21:00 Legend Double Dagger -6.2 -10.9 70 26 30 16.1 98.42   -15 LegendNANA
22:00 Legend Double Dagger -6.5 -11.7 67 27 26 16.1 98.48   -14 LegendNANA
23:00 Legend Double Dagger -6.7 -11.4 69 27 30 16.1 98.53   -15 LegendNANA

Notes on Data Quality.

Legend

  • E = Estimated
  • M = Missing
  • NA = Not Available
  • ‡ = Partner data that is not subject to review by the National Climate Archives
Date modified: